Overview Statistics Trail Chart Weather Telemetry Raw packets
 

This is the latest recevied weather packets stored in our database for station/object KV9E. If no packets are shown the sender has not sent any weather packets the latest 10 day(s).

<< 109 110 111 112 113 >>
Time Temp. Humidity Pressure Rain* Wind** Luminosity Snow
1787776953 25.56° C 74% 1015.6 hPa 0 mm - 144 W/m² -
1787776647 25.56° C 75% 1015.5 hPa 0 mm - 135 W/m² -
1787776346 25.56° C 72% 1015.5 hPa 0 mm - 131 W/m² -
1787776044 25.56° C 75% 1015.7 hPa 0 mm - 136 W/m² -
1787775740 25.56° C 73% 1015.9 hPa 0 mm - 136 W/m² -
1787775438 26.11° C 70% 1015.7 hPa 0 mm - 132 W/m² -
1787775137 26.11° C 69% 1015.9 hPa 0 mm - 148 W/m² -
1787774837 26.67° C 67% 1016 hPa 0 mm - 183 W/m² -
1787774536 26.11° C 70% 1016.1 hPa 0 mm - 188 W/m² -
1787774236 26.67° C 69% 1016.1 hPa 0 mm - 226 W/m² -
1787773935 26.11° C 68% 1016 hPa 0 mm - 196 W/m² -
1787773634 26.67° C 70% 1016 hPa 0 mm - 192 W/m² -
1787773330 26.67° C 70% 1016.1 hPa 0 mm - 245 W/m² -
1787773026 26.67° C 69% 1016.2 hPa 0 mm - 203 W/m² -
1787772721 26.67° C 67% 1016.4 hPa 0 mm - 232 W/m² -
1787772419 26.67° C 65% 1016.1 hPa 0 mm - 221 W/m² -
1787772119 27.22° C 66% 1016.4 hPa 0 mm - 196 W/m² -
1787771818 28.33° C 64% 1016.2 hPa 0 mm - 212 W/m² -
1787771512 28.33° C 64% 1016.2 hPa 0 mm - 241 W/m² -
1787771211 28.33° C 60% 1016.5 hPa 0 mm - 298 W/m² -
1787770907 28.33° C 61% 1016.5 hPa 0 mm - 256 W/m² -
1787770605 28.33° C 62% 1016.7 hPa 0 mm - 362 W/m² -
1787770300 28.33° C 59% 1016.7 hPa 0 mm - 319 W/m² -
1787769999 28.89° C 56% 1016.5 hPa 0 mm - 393 W/m² -
1787769694 28.89° C 56% 1016.5 hPa 0 mm - 398 W/m² -

* Rain latest hour (hover to see other rain measurements)
** Current wind speed in m/s (hover to see current wind gust speed)